| time (UTC) | temp F | wind direction | speed MPH | gust MPH | rain 1hr in | rain 24hr in | rain mn in | humidity % | barometer mb |
| 20260502204954 | 50 | 307 | 0.0 | 1.0 | 0.00 | 0.06 | 0.06 | 86 | 1008.5 |
| 20260502204451 | 50 | 312 | 0.0 | 1.0 | 0.00 | 0.06 | 0.06 | 86 | 1008.7 |
| 20260502203949 | 50 | 305 | 1.0 | 1.0 | 0.00 | 0.06 | 0.06 | 86 | 1008.5 |
| 20260502203446 | 50 | 310 | 0.0 | 0.0 | 0.00 | 0.06 | 0.06 | 86 | 1008.4 |
| 20260502202942 | 49 | 312 | 0.0 | 0.0 | 0.00 | 0.06 | 0.06 | 86 | 1008.7 |
| 20260502202439 | 50 | 305 | 1.0 | 1.0 | 0.00 | 0.06 | 0.06 | 86 | 1008.6 |
| 20260502201937 | 50 | 303 | 1.0 | 1.0 | 0.00 | 0.06 | 0.06 | 86 | 1008.7 |
| 20260502201433 | 50 | 313 | 0.0 | 0.0 | 0.00 | 0.06 | 0.06 | 85 | 1008.8 |
| 20260502200930 | 50 | 308 | 1.0 | 1.0 | 0.00 | 0.06 | 0.06 | 85 | 1008.8 |
| 20260502200425 | 50 | 313 | 1.0 | 2.0 | 0.00 | 0.06 | 0.06 | 84 | 1008.8 |
| 20260502195923 | 50 | 289 | 0.0 | 1.0 | 0.00 | 0.06 | 0.06 | 83 | 1008.8 |
| 20260502195420 | 50 | 312 | 1.0 | 1.0 | 0.00 | 0.06 | 0.06 | 84 | 1008.9 |
| 20260502194916 | 51 | 314 | 0.0 | 0.0 | 0.00 | 0.06 | 0.06 | 81 | 1008.9 |
| 20260502194414 | 51 | 317 | 0.0 | 0.0 | 0.00 | 0.06 | 0.06 | 82 | 1008.9 |
| 20260502193910 | 51 | 301 | 2.0 | 2.0 | 0.00 | 0.06 | 0.06 | 81 | 1008.9 |
| 20260502193407 | 51 | 313 | 1.0 | 1.0 | 0.00 | 0.06 | 0.06 | 82 | 1008.7 |
| 20260502192902 | 51 | 316 | 0.0 | 1.0 | 0.00 | 0.06 | 0.06 | 82 | 1008.7 |
| 20260502192359 | 51 | 313 | 1.0 | 1.0 | 0.00 | 0.06 | 0.06 | 83 | 1008.8 |
| 20260502191856 | 51 | 309 | 2.0 | 3.0 | 0.00 | 0.06 | 0.06 | 83 | 1008.9 |
| 20260502191354 | 52 | 307 | 2.0 | 3.0 | 0.00 | 0.06 | 0.06 | 83 | 1009.0 |
| 20260502190851 | 52 | 316 | 0.0 | 0.0 | 0.00 | 0.06 | 0.06 | 83 | 1009.0 |
| 20260502190349 | 52 | 331 | 0.0 | 1.0 | 0.00 | 0.06 | 0.06 | 83 | 1009.1 |
| 20260502185844 | 51 | 332 | 0.0 | 1.0 | 0.00 | 0.06 | 0.06 | 84 | 1009.1 |
| 20260502185340 | 51 | 307 | 1.0 | 2.0 | 0.00 | 0.06 | 0.06 | 85 | 1009.0 |
| 20260502184837 | 51 | 297 | 1.0 | 1.0 | 0.00 | 0.06 | 0.06 | 87 | 1009.4 |
| 20260502184333 | 50 | 305 | 1.0 | 1.0 | 0.00 | 0.06 | 0.06 | 88 | 1009.4 |
| 20260502183830 | 50 | 311 | 1.0 | 2.0 | 0.00 | 0.06 | 0.06 | 88 | 1009.3 |
| 20260502183326 | 50 | 308 | 0.0 | 1.0 | 0.00 | 0.06 | 0.06 | 89 | 1009.3 |
| 20260502182821 | 50 | 311 | 2.0 | 2.0 | 0.00 | 0.06 | 0.06 | 90 | 1009.4 |
| 20260502182316 | 50 | 314 | 0.0 | 0.0 | 0.00 | 0.06 | 0.06 | 91 | 1009.5 |
| 20260502181813 | 50 | 317 | 0.0 | 1.0 | 0.00 | 0.06 | 0.06 | 90 | 1009.6 |
| 20260502181312 | 50 | 300 | 2.0 | 3.0 | 0.00 | 0.06 | 0.06 | 90 | 1009.7 |
| 20260502180810 | 51 | 303 | 1.0 | 2.0 | 0.00 | 0.06 | 0.06 | 88 | 1009.7 |
| 20260502180307 | 51 | 316 | 2.0 | 2.0 | 0.00 | 0.06 | 0.06 | 89 | 1009.8 |
| 20260502170226 | 49 | 312 | 1.0 | 1.0 | 0.00 | 0.06 | 0.06 | 92 | 1009.4 |
| 20260502164213 | 49 | 312 | 0.0 | 0.0 | 0.00 | 0.06 | 0.06 | 92 | 1009.5 |
| 20260502163708 | 50 | 311 | 1.0 | 2.0 | 0.00 | 0.06 | 0.06 | 92 | 1009.4 |
| 20260502163205 | 49 | 315 | 0.0 | 1.0 | 0.00 | 0.06 | 0.06 | 93 | 1009.6 |
| 20260502162702 | 49 | 309 | 0.0 | 1.0 | 0.00 | 0.06 | 0.06 | 93 | 1009.5 |
| 20260502162159 | 49 | 314 | 0.0 | 0.0 | 0.00 | 0.06 | 0.06 | 94 | 1010.0 |
| 20260502161656 | 49 | 311 | 0.0 | 1.0 | 0.00 | 0.06 | 0.06 | 94 | 1009.7 |
| 20260502161153 | 49 | 295 | 2.0 | 2.0 | 0.00 | 0.06 | 0.06 | 94 | 1009.7 |
| 20260502160651 | 49 | 316 | 0.0 | 0.0 | 0.00 | 0.06 | 0.06 | 96 | 1009.8 |
| 20260502160150 | 48 | 314 | 0.0 | 1.0 | 0.00 | 0.06 | 0.06 | 96 | 1009.6 |
| 20260502152103 | 47 | 290 | 3.0 | 3.0 | 0.00 | 0.06 | 0.06 | 97 | 1009.9 |
| 20260502151600 | 47 | 284 | 3.0 | 3.0 | 0.00 | 0.06 | 0.06 | 97 | 1010.3 |
| 20260502151058 | 47 | 258 | 4.0 | 5.0 | 0.00 | 0.06 | 0.06 | 97 | 1010.3 |
| 20260502150555 | 47 | 259 | 6.0 | 7.0 | 0.00 | 0.06 | 0.06 | 98 | 1010.1 |
| 20260502130440 | 45 | 310 | 1.0 | 1.0 | 0.07 | 0.03 | 0.03 | 91 | 1011.3 |
| 20260502123422 | 45 | 267 | 5.0 | 6.0 | 0.00 | 0.02 | 0.02 | 88 | 1010.6 |
| 20260502122920 | 45 | 299 | 3.0 | 3.0 | 0.00 | 0.02 | 0.02 | 89 | 1010.4 |
| 20260502122416 | 45 | 281 | 2.0 | 5.0 | 0.00 | 0.02 | 0.02 | 89 | 1010.6 |
| 20260502121914 | 45 | 305 | 2.0 | 2.0 | 0.00 | 0.02 | 0.02 | 90 | 1010.7 |
| 20260502121411 | 45 | 304 | 1.0 | 1.0 | 0.00 | 0.02 | 0.02 | 91 | 1010.6 |
| 20260502120909 | 45 | 298 | 2.0 | 2.0 | 0.05 | 0.02 | 0.02 | 91 | 1010.8 |
| 20260502120404 | 45 | 306 | 2.0 | 2.0 | 0.05 | 0.02 | 0.02 | 92 | 1010.8 |
| 20260502115902 | 45 | 302 | 2.0 | 2.0 | 0.00 | 0.01 | 0.01 | 92 | 1011.0 |
| 20260502115359 | 45 | 288 | 2.0 | 3.0 | 0.07 | 0.01 | 0.01 | 90 | 1011.1 |
| 20260502114855 | 45 | 306 | 1.0 | 1.0 | 0.07 | 0.01 | 0.01 | 89 | 1011.2 |
| 20260502114352 | 46 | 304 | 1.0 | 1.0 | 0.00 | 0.00 | 0.00 | 87 | 1011.5 |
| 20260502113849 | 46 | 295 | 1.0 | 1.0 | 0.00 | 0.00 | 0.00 | 87 | 1011.6 |
| 20260502113346 | 46 | 300 | 1.0 | 1.0 | 0.00 | 0.00 | 0.00 | 85 | 1011.4 |
| 20260502112845 | 46 | 304 | 1.0 | 1.0 | 0.00 | 0.00 | 0.00 | 83 | 1011.4 |
| 20260502112342 | 46 | 307 | 0.0 | 1.0 | 0.00 | 0.00 | 0.00 | 82 | 1011.4 |
| 20260502111839 | 46 | 305 | 1.0 | 1.0 | 0.00 | 0.00 | 0.00 | 83 | 1011.2 |
| 20260502111337 | 46 | 307 | 0.0 | 1.0 | 0.00 | 0.00 | 0.00 | 82 | 1011.1 |
| 20260502110834 | 47 | 304 | 1.0 | 1.0 | 0.00 | 0.00 | 0.00 | 82 | 1010.9 |
| 20260502110332 | 47 | 305 | 1.0 | 2.0 | 0.00 | 0.00 | 0.00 | 82 | 1010.9 |
| 20260502105829 | 47 | 305 | 2.0 | 2.0 | 0.00 | 0.00 | 0.00 | 82 | 1010.8 |
| 20260502105326 | 47 | 308 | 1.0 | 1.0 | 0.00 | 0.00 | 0.00 | 81 | 1010.7 |
| 20260502104824 | 46 | 307 | 1.0 | 1.0 | 0.00 | 0.00 | 0.00 | 81 | 1010.7 |
| 20260502104321 | 46 | 301 | 1.0 | 1.0 | 0.00 | 0.00 | 0.00 | 82 | 1010.7 |
| 20260502103818 | 46 | 295 | 1.0 | 2.0 | 0.00 | 0.00 | 0.00 | 81 | 1010.6 |
| 20260502103315 | 46 | 301 | 1.0 | 1.0 | 0.00 | 0.00 | 0.00 | 80 | 1010.7 |
| 20260502102813 | 46 | 307 | 1.0 | 1.0 | 0.00 | 0.00 | 0.00 | 80 | 1010.5 |
| 20260502102309 | 46 | 309 | 0.0 | 0.0 | 0.00 | 0.00 | 0.00 | 81 | 1010.6 |
| 20260502101807 | 46 | 299 | 2.0 | 2.0 | 0.00 | 0.00 | 0.00 | 81 | 1010.4 |
| 20260502101305 | 46 | 285 | 3.0 | 3.0 | 0.00 | 0.00 | 0.00 | 83 | 1010.3 |
| 20260502100803 | 46 | 291 | 1.0 | 2.0 | 0.00 | 0.00 | 0.00 | 83 | 1010.2 |
| 20260502100302 | 45 | 296 | 1.0 | 1.0 | 0.00 | 0.00 | 0.00 | 83 | 1010.1 |
| 20260502091235 | 42 | 293 | 0.0 | 1.0 | 0.00 | 0.00 | 0.00 | 79 | 1009.7 |
| 20260502090733 | 42 | 305 | 0.0 | 1.0 | 0.00 | 0.00 | 0.00 | 80 | 1010.0 |
| 20260502090229 | 41 | 312 | 0.0 | 0.0 | 0.00 | 0.00 | 0.00 | 81 | 1010.0 |
| 20260502071130 | 40 | 317 | 0.0 | 0.0 | 0.00 | 0.00 | 0.00 | 83 | 1010.4 |
| 20260502070628 | 40 | 317 | 0.0 | 0.0 | 0.00 | 0.00 | 0.00 | 83 | 1010.4 |
| 20260502070126 | 40 | 317 | 0.0 | 0.0 | 0.00 | 0.00 | 0.00 | 83 | 1010.6 |
| 20260502065624 | 40 | 317 | 0.0 | 0.0 | 0.00 | 0.00 | 0.00 | 83 | 1010.3 |
| 20260502065121 | 40 | 317 | 0.0 | 0.0 | 0.00 | 0.00 | 0.00 | 83 | 1010.4 |
| 20260502064620 | 40 | 317 | 0.0 | 0.0 | 0.00 | 0.00 | 0.00 | 82 | 1010.5 |
| 20260502064117 | 40 | 317 | 0.0 | 0.0 | 0.00 | 0.00 | 0.00 | 82 | 1010.3 |
| 20260502063614 | 40 | 317 | 0.0 | 0.0 | 0.00 | 0.00 | 0.00 | 82 | 1010.1 |
| 20260502063112 | 40 | 317 | 0.0 | 0.0 | 0.00 | 0.00 | 0.00 | 82 | 1010.0 |
| 20260502062609 | 40 | 317 | 0.0 | 0.0 | 0.00 | 0.00 | 0.00 | 82 | 1010.1 |
| 20260502062106 | 40 | 317 | 0.0 | 0.0 | 0.00 | 0.00 | 0.00 | 82 | 1009.9 |
| 20260502061604 | 40 | 317 | 0.0 | 0.0 | 0.00 | 0.00 | 0.00 | 82 | 1010.0 |
| 20260502061101 | 40 | 317 | 0.0 | 0.0 | 0.00 | 0.00 | 0.00 | 82 | 1009.8 |
| 20260502060556 | 40 | 317 | 0.0 | 0.0 | 0.00 | 0.00 | 0.00 | 82 | 1009.7 |
| 20260502060053 | 40 | 317 | 0.0 | 0.0 | 0.00 | 0.00 | 0.00 | 81 | 1009.9 |
| 20260502055551 | 39 | 317 | 0.0 | 1.0 | 0.00 | 0.00 | 0.00 | 82 | 1009.7 |
| 20260502055049 | 39 | 317 | 0.0 | 0.0 | 0.00 | 0.00 | 0.00 | 82 | 1009.8 |
| 20260502054548 | 39 | 317 | 0.0 | 0.0 | 0.00 | 0.00 | 0.00 | 82 | 1010.0 |
| 20260502054044 | 39 | 317 | 0.0 | 0.0 | 0.00 | 0.00 | 0.00 | 82 | 1009.8 |
| 20260502053541 | 39 | 317 | 0.0 | 0.0 | 0.00 | 0.00 | 0.00 | 82 | 1009.7 |
| 20260502053039 | 39 | 317 | 0.0 | 0.0 | 0.00 | 0.00 | 0.00 | 81 | 1009.7 |
| 20260502052537 | 39 | 317 | 0.0 | 0.0 | 0.00 | 0.00 | 0.00 | 80 | 1009.5 |
| 20260502052035 | 39 | 317 | 0.0 | 0.0 | 0.00 | 0.00 | 0.00 | 82 | 1009.8 |
| 20260502051533 | 39 | 317 | 0.0 | 0.0 | 0.00 | 0.00 | 0.00 | 82 | 1009.8 |
| 20260502051030 | 39 | 317 | 0.0 | 0.0 | 0.00 | 0.00 | 0.00 | 82 | 1009.9 |
| 20260502050526 | 39 | 317 | 0.0 | 0.0 | 0.00 | 0.00 | 0.00 | 82 | 1009.7 |
| 20260502050024 | 39 | 317 | 0.0 | 0.0 | 0.00 | 0.00 | 0.00 | 82 | 1009.7 |
| 20260502045520 | 39 | 317 | 0.0 | 0.0 | 0.00 | 0.00 | 0.00 | 83 | 1009.8 |
| 20260502045017 | 40 | 317 | 0.0 | 0.0 | 0.00 | 0.00 | 0.00 | 84 | 1009.6 |
| 20260502044514 | 40 | 317 | 0.0 | 0.0 | 0.00 | 0.00 | 0.00 | 84 | 1009.7 |
| 20260502044010 | 40 | 317 | 0.0 | 0.0 | 0.00 | 0.00 | 0.00 | 84 | 1009.6 |
| 20260502043508 | 40 | 317 | 0.0 | 0.0 | 0.00 | 0.00 | 0.00 | 83 | 1009.6 |
| 20260502043004 | 40 | 317 | 0.0 | 0.0 | 0.00 | 0.00 | 0.00 | 84 | 1009.7 |
| 20260502042459 | 40 | 317 | 0.0 | 0.0 | 0.00 | 0.00 | 0.00 | 86 | 1009.5 |
| 20260502041957 | 40 | 317 | 0.0 | 0.0 | 0.00 | 0.00 | 0.00 | 86 | 1009.4 |
| 20260502041455 | 41 | 317 | 0.0 | 0.0 | 0.00 | 0.00 | 0.00 | 86 | 1009.3 |
| 20260502040951 | 41 | 317 | 0.0 | 0.0 | 0.00 | 0.00 | 0.00 | 83 | 1009.4 |
| 20260502040448 | 40 | 317 | 0.0 | 0.0 | 0.00 | 0.00 | 0.00 | 81 | 1009.6 |
| 20260502035944 | 40 | 317 | 0.0 | 0.0 | 0.00 | 0.00 | 0.00 | 79 | 1009.4 |
| 20260502035440 | 40 | 317 | 0.0 | 0.0 | 0.00 | 0.00 | 0.00 | 79 | 1009.6 |
| 20260502034938 | 41 | 317 | 0.0 | 0.0 | 0.00 | 0.00 | 0.00 | 80 | 1009.3 |
| 20260502034437 | 41 | 317 | 0.0 | 0.0 | 0.00 | 0.00 | 0.00 | 80 | 1009.5 |
| 20260502033935 | 42 | 317 | 0.0 | 0.0 | 0.00 | 0.00 | 0.00 | 80 | 1009.4 |
| 20260502033432 | 42 | 317 | 0.0 | 0.0 | 0.00 | 0.00 | 0.00 | 78 | 1009.6 |
| 20260502032928 | 42 | 317 | 0.0 | 0.0 | 0.00 | 0.00 | 0.00 | 77 | 1009.6 |
| 20260502032425 | 42 | 317 | 0.0 | 0.0 | 0.00 | 0.00 | 0.00 | 73 | 1009.3 |
| 20260502031922 | 42 | 317 | 0.0 | 0.0 | 0.00 | 0.00 | 0.00 | 76 | 1009.2 |
| 20260502031421 | 43 | 317 | 0.0 | 0.0 | 0.00 | 0.00 | 0.00 | 77 | 1009.4 |
| 20260502030919 | 42 | 317 | 0.0 | 0.0 | 0.00 | 0.00 | 0.00 | 72 | 1009.4 |
| 20260502030417 | 42 | 317 | 0.0 | 0.0 | 0.00 | 0.00 | 0.00 | 73 | 1009.4 |
| 20260502025914 | 42 | 317 | 0.0 | 0.0 | 0.00 | 0.00 | 0.00 | 78 | 1009.1 |
| 20260502025411 | 42 | 317 | 0.0 | 0.0 | 0.00 | 0.00 | 0.00 | 80 | 1009.2 |
| 20260502024909 | 43 | 317 | 0.0 | 0.0 | 0.00 | 0.00 | 0.00 | 80 | 1009.2 |
| 20260502024407 | 43 | 317 | 0.0 | 0.0 | 0.00 | 0.00 | 0.00 | 80 | 1009.4 |
| 20260502023904 | 44 | 317 | 0.0 | 0.0 | 0.00 | 0.00 | 0.00 | 80 | 1009.3 |
| 20260502023402 | 44 | 317 | 0.0 | 0.0 | 0.00 | 0.00 | 0.00 | 77 | 1009.4 |
| 20260502022859 | 44 | 317 | 0.0 | 0.0 | 0.00 | 0.00 | 0.00 | 76 | 1009.3 |
| 20260502022355 | 44 | 317 | 0.0 | 0.0 | 0.00 | 0.00 | 0.00 | 75 | 1009.3 |
| 20260502021852 | 44 | 317 | 0.0 | 0.0 | 0.00 | 0.00 | 0.00 | 77 | 1009.3 |
| 20260502021349 | 45 | 317 | 0.0 | 0.0 | 0.00 | 0.00 | 0.00 | 79 | 1009.3 |
| 20260502020847 | 45 | 317 | 0.0 | 0.0 | 0.00 | 0.00 | 0.00 | 79 | 1009.2 |
| 20260502020344 | 46 | 317 | 0.0 | 0.0 | 0.00 | 0.00 | 0.00 | 78 | 1009.1 |
| 20260502015841 | 46 | 317 | 0.0 | 0.0 | 0.00 | 0.00 | 0.00 | 77 | 1009.4 |
| 20260502015338 | 46 | 317 | 0.0 | 0.0 | 0.00 | 0.00 | 0.00 | 74 | 1009.3 |
| 20260502014836 | 46 | 317 | 0.0 | 0.0 | 0.00 | 0.00 | 0.00 | 64 | 1009.3 |
| 20260502014333 | 46 | 317 | 0.0 | 0.0 | 0.00 | 0.00 | 0.00 | 74 | 1009.3 |
| 20260502013828 | 46 | 317 | 0.0 | 0.0 | 0.00 | 0.00 | 0.00 | 75 | 1009.1 |
| 20260502013324 | 47 | 317 | 0.0 | 0.0 | 0.00 | 0.00 | 0.00 | 73 | 1009.3 |
| 20260502012821 | 47 | 317 | 0.0 | 0.0 | 0.00 | 0.00 | 0.00 | 74 | 1009.1 |
| 20260502012319 | 48 | 317 | 0.0 | 0.0 | 0.00 | 0.00 | 0.00 | 75 | 1009.1 |
| 20260502011816 | 49 | 317 | 0.0 | 0.0 | 0.00 | 0.00 | 0.00 | 72 | 1009.1 |
| 20260502011312 | 49 | 317 | 0.0 | 0.0 | 0.00 | 0.00 | 0.00 | 58 | 1009.2 |
| 20260502010809 | 50 | 317 | 0.0 | 0.0 | 0.00 | 0.00 | 0.00 | 45 | 1008.9 |
| 20260502010305 | 50 | 317 | 0.0 | 0.0 | 0.00 | 0.00 | 0.00 | 45 | 1008.8 |
| 20260502005803 | 50 | 317 | 0.0 | 0.0 | 0.00 | 0.00 | 0.00 | 46 | 1008.7 |
| 20260502005301 | 51 | 317 | 0.0 | 0.0 | 0.00 | 0.00 | 0.00 | 45 | 1008.7 |
| 20260502004757 | 51 | 317 | 0.0 | 0.0 | 0.00 | 0.00 | 0.00 | 44 | 1008.5 |
| 20260502004253 | 51 | 317 | 0.0 | 0.0 | 0.00 | 0.00 | 0.00 | 45 | 1008.4 |
| 20260502003752 | 51 | 316 | 0.0 | 0.0 | 0.00 | 0.00 | 0.00 | 43 | 1008.6 |
| 20260502003249 | 51 | 315 | 0.0 | 0.0 | 0.00 | 0.00 | 0.00 | 43 | 1008.5 |
| 20260502002744 | 51 | 315 | 0.0 | 0.0 | 0.00 | 0.00 | 0.00 | 43 | 1008.3 |
| 20260502002242 | 51 | 315 | 0.0 | 0.0 | 0.00 | 0.00 | 0.00 | 42 | 1008.5 |
| 20260502001739 | 52 | 315 | 0.0 | 0.0 | 0.00 | 0.00 | 0.00 | 42 | 1008.3 |
| 20260502001237 | 52 | 315 | 0.0 | 0.0 | 0.00 | 0.00 | 0.00 | 42 | 1008.1 |
| 20260502000735 | 53 | 315 | 0.0 | 0.0 | 0.00 | 0.00 | 0.00 | 41 | 1008.0 |
| 20260502000233 | 53 | 315 | 0.0 | 0.0 | 0.00 | 0.00 | 0.00 | 41 | 1007.8 |
| 20260501235732 | 53 | 315 | 0.0 | 0.0 | 0.00 | 0.00 | 0.00 | 41 | 1007.6 |
| 20260501235229 | 54 | 315 | 0.0 | 0.0 | 0.00 | 0.00 | 0.00 | 40 | 1007.8 |
| 20260501234725 | 55 | 315 | 0.0 | 0.0 | 0.00 | 0.00 | 0.00 | 39 | 1007.5 |
| 20260501234222 | 55 | 311 | 0.0 | 0.0 | 0.00 | 0.00 | 0.00 | 38 | 1007.6 |
| 20260501233720 | 55 | 308 | 0.0 | 0.0 | 0.00 | 0.00 | 0.00 | 39 | 1007.6 |
| 20260501233217 | 55 | 314 | 0.0 | 0.0 | 0.00 | 0.00 | 0.00 | 37 | 1007.4 |
| 20260501232713 | 56 | 313 | 0.0 | 0.0 | 0.00 | 0.00 | 0.00 | 37 | 1007.3 |
| 20260501232210 | 56 | 313 | 0.0 | 0.0 | 0.00 | 0.00 | 0.00 | 38 | 1007.2 |
| 20260501231708 | 56 | 311 | 0.0 | 0.0 | 0.00 | 0.00 | 0.00 | 39 | 1007.0 |
| 20260501231206 | 56 | 307 | 0.0 | 0.0 | 0.00 | 0.00 | 0.00 | 36 | 1007.0 |
| 20260501230704 | 56 | 309 | 0.0 | 1.0 | 0.00 | 0.00 | 0.00 | 37 | 1006.9 |
| 20260501230202 | 57 | 315 | 0.0 | 0.0 | 0.00 | 0.00 | 0.00 | 38 | 1006.8 |
| 20260501225659 | 57 | 314 | 0.0 | 1.0 | 0.00 | 0.00 | 0.00 | 36 | 1006.9 |
| 20260501225156 | 57 | 305 | 1.0 | 1.0 | 0.00 | 0.00 | 0.00 | 35 | 1006.6 |
| 20260501224652 | 58 | 313 | 0.0 | 1.0 | 0.00 | 0.00 | 0.00 | 36 | 1006.8 |
| 20260501224150 | 58 | 310 | 1.0 | 1.0 | 0.00 | 0.00 | 0.00 | 34 | 1006.5 |
| 20260501223646 | 58 | 307 | 1.0 | 1.0 | 0.00 | 0.00 | 0.00 | 34 | 1006.5 |
| 20260501223143 | 59 | 309 | 2.0 | 3.0 | 0.00 | 0.00 | 0.00 | 35 | 1006.3 |
| 20260501222639 | 59 | 314 | 0.0 | 0.0 | 0.00 | 0.00 | 0.00 | 34 | 1006.4 |
| 20260501222136 | 59 | 316 | 0.0 | 1.0 | 0.00 | 0.00 | 0.00 | 34 | 1006.0 |
| 20260501221633 | 59 | 310 | 0.0 | 1.0 | 0.00 | 0.00 | 0.00 | 34 | 1005.8 |
| 20260501221130 | 59 | 292 | 1.0 | 2.0 | 0.00 | 0.00 | 0.00 | 35 | 1005.8 |
| 20260501220628 | 59 | 310 | 0.0 | 1.0 | 0.00 | 0.00 | 0.00 | 36 | 1005.8 |
| 20260501220124 | 59 | 309 | 0.0 | 1.0 | 0.00 | 0.00 | 0.00 | 36 | 1005.9 |
| 20260501215621 | 59 | 313 | 1.0 | 2.0 | 0.00 | 0.00 | 0.00 | 37 | 1005.8 |
| 20260501215117 | 60 | 299 | 2.0 | 2.0 | 0.00 | 0.00 | 0.00 | 35 | 1005.7 |
| 20260501214612 | 60 | 313 | 0.0 | 1.0 | 0.00 | 0.00 | 0.00 | 35 | 1005.6 |
| 20260501214107 | 60 | 308 | 1.0 | 1.0 | 0.00 | 0.00 | 0.00 | 35 | 1005.6 |
| 20260501213604 | 60 | 341 | 0.0 | 1.0 | 0.00 | 0.00 | 0.00 | 37 | 1005.5 |
| 20260501213101 | 60 | 311 | 0.0 | 1.0 | 0.00 | 0.00 | 0.00 | 35 | 1005.3 |
| 20260501212557 | 60 | 302 | 1.0 | 2.0 | 0.00 | 0.00 | 0.00 | 36 | 1005.3 |
| 20260501212054 | 61 | 316 | 1.0 | 1.0 | 0.00 | 0.00 | 0.00 | 35 | 1005.2 |
| 20260501211551 | 61 | 310 | 0.0 | 1.0 | 0.00 | 0.00 | 0.00 | 37 | 1005.2 |
| 20260501211049 | 61 | 309 | 0.0 | 1.0 | 0.00 | 0.00 | 0.00 | 36 | 1005.2 |
| 20260501210545 | 61 | 317 | 1.0 | 1.0 | 0.00 | 0.00 | 0.00 | 36 | 1005.1 |
| 20260501210042 | 62 | 318 | 1.0 | 1.0 | 0.00 | 0.00 | 0.00 | 35 | 1005.2 |
| 20260501205538 | 61 | 322 | 1.0 | 2.0 | 0.00 | 0.00 | 0.00 | 37 | 1005.0 |
| 20260501205036 | 62 | 296 | 0.0 | 2.0 | 0.00 | 0.00 | 0.00 | 36 | 1005.0 |